This is the latest recevied weather packets stored in our database for station/object SQ5AAG-2. If no packets are shown the sender has not sent any weather packets the latest 10 day(s).
| Time | Temp. | Humidity | Pressure | Rain* | Wind** | Luminosity | Snow |
|---|---|---|---|---|---|---|---|
| 1777265473 | 10° C | 38% | 1008.2 hPa | 0 mm | - | - | - |
| 1777265172 | 10° C | 38% | 1008.2 hPa | 0 mm | - | - | - |
| 1777264872 | 9.44° C | 39% | 1008.4 hPa | 0 mm | - | - | - |
| 1777264573 | 8.89° C | 40% | 1008.2 hPa | 0 mm | - | - | - |
| 1777264271 | 8.89° C | 40% | 1008.2 hPa | 0 mm | - | - | - |
| 1777263973 | 8.33° C | 42% | 1008.2 hPa | 0 mm | - | - | - |
| 1777263670 | 7.78° C | 42% | 1008.1 hPa | 0 mm | - | - | - |
| 1777263372 | 7.78° C | 42% | 1008.2 hPa | 0 mm | - | - | - |
| 1777263069 | 7.78° C | 44% | 1008.1 hPa | 0 mm | - | - | - |
| 1777262770 | 7.22° C | 45% | 1008.1 hPa | 0 mm | - | - | - |
| 1777262470 | 6.67° C | 47% | 1008.1 hPa | 0 mm | - | - | - |
| 1777262169 | 5.56° C | 49% | 1008.1 hPa | 0 mm | - | - | - |
| 1777261868 | 5° C | 50% | 1008.2 hPa | 0 mm | - | - | - |
| 1777261568 | 3.89° C | 53% | 1008.1 hPa | 0 mm | - | - | - |
| 1777261269 | 2.78° C | 52% | 1008.1 hPa | 0 mm | - | - | - |
| 1777260967 | 2.78° C | 52% | 1008.2 hPa | 0 mm | - | - | - |
| 1777260667 | 2.22° C | 52% | 1008.1 hPa | 0 mm | - | - | - |
| 1777260367 | 2.22° C | 53% | 1008.2 hPa | 0 mm | - | - | - |
| 1777260067 | 2.22° C | 53% | 1008.2 hPa | 0 mm | - | - | - |
| 1777259766 | 1.67° C | 53% | 1008.2 hPa | 0 mm | - | - | - |
| 1777259466 | 1.67° C | 54% | 1008.2 hPa | 0 mm | - | - | - |
| 1777259166 | 1.67° C | 54% | 1008.2 hPa | 0 mm | - | - | - |
| 1777258865 | 1.67° C | 54% | 1008.2 hPa | 0 mm | - | - | - |
| 1777258565 | 1.67° C | 55% | 1008.2 hPa | 0 mm | - | - | - |
| 1777258265 | 1.11° C | 55% | 1008.3 hPa | 0 mm | - | - | - |
* Rain latest hour (hover to see other rain measurements)
** Current wind speed in m/s (hover to see current wind gust speed)